Regional Weather Roundup
Issued by NWS Bismarck, ND

Home | Current Version | Previous Version | Text Only | Print | Product List | Glossary On
Versions: 1 2 3 4 5 6 7 8 9 10 11 12 13 14 15 16 17 18 19 20 21 22 23 24 25 26 27 28 29 30 31 32 33 34 35 36 37 38 39 40 41 42 43 44 45 46 47 48 49 50
000
ASUS43 KBIS 231110
RWRBIS

NWR BROADCAST TEXT
NATIONAL WEATHER SERVICE BISMARCK ND
600 AM CDT WED JUL 23 2014

NOTE: "FAIR" INDICATES FEW OR NO CLOUDS BELOW 12,000 FEET WITH NO
SIGNIFICANT WEATHER AND/OR OBSTRUCTIONS TO VISIBILITY.


CITY           SKY/WX    TMP DP  RH WIND       PRES   REMARKS
WILLISTON      CLEAR     65  62  90 E5        30.22S
MINOT          MOCLDY    64  63  94 NE8       30.25S FOG
MINOT AFB      MOCLDY    64  64 100 E10       30.25S
BISMARCK       CLOUDY    65  61  87 E8        30.26S
DICKINSON      CLEAR     60  58  92 E9        30.23S
GARRISON         N/A     65  64  97 E9        30.25S
HETTINGER ARPT CLEAR     60  57  89 SE7       30.25S
JAMESTOWN      PTCLDY    61  58  90 CALM      30.29R
CARRINGTON     PTSUNNY   61  61 100 SE3       30.31R
CROSBY           N/A     61  61 100 E8        30.25F
HARVEY         LGT RAIN  61  61 100 CALM      30.30R
HAZEN          PTSUNNY   64  63  94 NE6       30.25F
MANDAN         CLOUDY    64  61  88 E5        30.27S
RUGBY          FAIR      59  57  94 E10       30.29R
STANLEY        FAIR      61  61 100 E5        30.26S
TIOGA          FAIR      55  55 100 E7        30.28S
WATFORD CITY   FAIR      63  63 100 SE10      30.21S
$$

CITY           SKY/WX    TMP DP  RH WIND       PRES   REMARKS
GRAND FORKS    MOCLDY    59  57  93 N3        30.28S
GRAND FORKS AF PTCLDY    58  58 100 N5        30.30R
DEVILS LAKE    MOCLDY    61  52  72 CALM      30.30R
FARGO          PTCLDY    58  55  90 CALM      30.27S
CANDO          PTSUNNY   59  55  88 E5        30.32R
CAVALIER       FAIR      57  54  88 N6        30.30R
GRAFTON        PTSUNNY   55  55 100 N5        30.30R
GWINNER        SUNNY     61  61 100 CALM      30.31R
LANGDON        FAIR      55  54  94 E6        30.32R
ROLLA          FAIR      54  54 100 CALM      30.34R
WALHALLA         N/A     55  55 100 W3          N/A
$$

CITY           SKY/WX    TMP DP  RH WIND       PRES   REMARKS
ABERDEEN       PTCLDY    56  55  97 NE3       30.28R
MOBRIDGE       CLEAR     62  58  86 E8        30.24R
BUFFALO          N/A     60  57  89 NE5       30.17R
RAPID CITY     PTCLDY    66  57  72 CALM      30.25F
GLASGOW        CLEAR     60  56  86 SE7       30.19R
SIDNEY         CLEAR     61  57  88 N3        30.22F
WOLF POINT     PTCLDY    59  55  87 E5        30.20R
GLENDIVE       CLEAR     61  57  88 E6        30.22S
MILES CITY     CLEAR     62  60  93 N7        30.18F
BAKER          CLEAR     57  56  96 E5        30.23S
$$

CITY           SKY/WX    TMP DP  RH WIND       PRES   REMARKS
BILLINGS       PTCLDY    63  58  83 N6        30.18S
GREAT FALLS    PTCLDY    58  55  90 CALM      30.12F
REGINA         PTCLDY    61  52  72 E12       30.27S
ESTEVAN        CLOUDY    61  59  94 E7        30.28R
$$




USA.gov is the U.S. government's official web portal to all federal, state and local government web resources and services.